EW0158 Weather Reports


Display with metric or nautical units.
time (UTC)temp
F
wind
direction
speed
MPH
gust
MPH
rain 1hr
in
rain 24hr
in
rain mn
in
humidity
%
barometer
mb
20260903134022 75 180 11.0 18.0 0.00 0.00 0.00 85 1015.9
20260903133117 75 202 8.0 14.0 0.00 0.00 0.00 86 1015.7
20260903131017 74 180 8.0 13.0 0.00 0.00 0.00 88 1015.8
20260903130118 73 180 7.0 12.0 0.00 0.00 0.00 88 1015.6
20260903125017 73 180 6.0 11.0 0.00 0.00 0.00 88 1015.6
20260903124017 73 180 6.0 12.0 0.00 0.00 0.00 88 1015.6
20260903123015 73 180 6.0 11.0 0.00 0.00 0.00 88 1015.7
20260903122015 73 180 6.0 12.0 0.00 0.00 0.00 88 1015.6
20260903121115 73 202 6.0 12.0 0.00 0.00 0.00 87 1015.5
20260903120015 73 180 8.0 12.0 0.00 0.00 0.00 87 1015.6
20260903114015 73 202 7.0 12.0 0.00 0.00 0.00 86 1015.5
20260903113015 73 180 7.0 11.0 0.00 0.00 0.00 86 1015.7
20260903112015 73 180 8.0 13.0 0.00 0.00 0.00 85 1015.5
20260903111015 74 180 8.0 14.0 0.00 0.00 0.00 85 1015.6
20260903110015 74 180 8.0 12.0 0.00 0.00 0.00 84 1015.8
20260903105015 74 180 8.0 14.0 0.00 0.00 0.00 84 1015.6
20260903104015 74 180 7.0 14.0 0.00 0.00 0.00 83 1015.5
20260903103015 74 180 6.0 11.0 0.00 0.00 0.00 82 1015.6
20260903102015 75 180 7.0 12.0 0.00 0.00 0.00 81 1015.6
20260903101015 75 180 7.0 12.0 0.00 0.00 0.00 81 1015.6
20260903100015 75 202 8.0 14.0 0.00 0.00 0.00 80 1015.6
20260903095015 75 180 6.0 12.0 0.00 0.00 0.00 80 1015.8
20260903094015 75 180 7.0 13.0 0.00 0.00 0.00 79 1015.9
20260903093015 75 180 6.0 9.0 0.00 0.00 0.00 78 1015.8
20260903092015 76 180 6.0 11.0 0.00 0.00 0.00 78 1015.8
20260903091015 76 180 5.0 9.0 0.00 0.00 0.00 77 1015.8
20260903090015 76 180 4.0 7.0 0.00 0.00 0.00 77 1015.8
20260903085015 76 180 5.0 10.0 0.00 0.00 0.00 76 1015.7
20260903084015 77 180 8.0 12.0 0.00 0.00 0.00 76 1015.6
20260903083015 77 180 8.0 13.0 0.00 0.00 0.00 75 1015.8
20260903082015 77 202 8.0 17.0 0.00 0.00 0.00 74 1016.0
20260903081015 77 180 8.0 15.0 0.00 0.00 0.00 74 1015.9
20260903080015 77 180 7.0 11.0 0.00 0.00 0.00 73 1016.1
20260903075015 77 202 7.0 14.0 0.00 0.00 0.00 71 1016.1
20260903074015 77 202 8.0 11.0 0.00 0.00 0.00 71 1016.1
20260903073015 77 202 7.0 13.0 0.00 0.00 0.00 71 1016.4
20260903072015 77 180 7.0 12.0 0.00 0.00 0.00 70 1016.4
20260903070015 77 180 3.0 5.0 0.00 0.00 0.00 66 1016.2
20260903065015 78 180 4.0 6.0 0.00 0.00 0.00 65 1016.1
20260903064015 78 180 4.0 7.0 0.00 0.00 0.00 63 1016.2
20260903063016 78 180 5.0 9.0 0.00 0.00 0.00 63 1016.5
20260903062015 79 180 7.0 13.0 0.00 0.00 0.00 61 1016.5
20260903060015 80 180 7.0 12.0 0.00 0.00 0.00 57 1016.2
20260903055020 80 180 6.0 11.0 0.00 0.00 0.00 56 1016.4
20260903053020 82 180 7.0 15.0 0.00 0.00 0.00 51 1016.3
20260903052015 81 180 4.0 9.0 0.00 0.00 0.00 52 1016.1
20260903051015 81 180 3.0 6.0 0.00 0.00 0.00 52 1016.0
20260903050015 80 180 3.0 5.0 0.00 0.00 0.00 53 1015.9
20260903045017 80 157 2.0 5.0 0.00 0.00 0.00 54 1016.0
20260903044017 80 157 2.0 3.0 0.00 0.00 0.00 54 1016.0
20260903043017 80 157 2.0 4.0 0.00 0.00 0.00 54 1015.8
20260903042017 81 157 2.0 3.0 0.00 0.00 0.00 53 1015.9
20260903041017 81 157 2.0 4.0 0.00 0.00 0.00 52 1016.1
20260903040017 81 157 2.0 4.0 0.00 0.00 0.00 52 1015.8
20260903035017 81 135 2.0 3.0 0.00 0.00 0.00 53 1015.9
20260903034017 81 90 3.0 4.0 0.00 0.00 0.00 53 1015.8
20260903033017 81 135 1.0 3.0 0.00 0.00 0.00 53 1015.6
20260903032015 82 157 1.0 3.0 0.00 0.00 0.00 52 1015.4
20260903031015 83 157 2.0 4.0 0.00 0.00 0.00 51 1015.3
20260903030017 83 157 2.0 4.0 0.00 0.00 0.00 51 1015.2
20260903025015 83 180 2.0 4.0 0.00 0.00 0.00 50 1015.0
20260903024015 84 180 3.0 5.0 0.00 0.00 0.00 50 1014.8
20260903023015 84 180 3.0 4.0 0.00 0.00 0.00 48 1014.7
20260903022015 85 180 3.0 5.0 0.00 0.00 0.00 47 1014.5
20260903020017 85 157 3.0 6.0 0.00 0.00 0.00 46 1013.8
20260903015015 85 157 3.0 5.0 0.00 0.00 0.00 45 1013.7
20260903014015 86 157 3.0 5.0 0.00 0.00 0.00 44 1013.7
20260903013015 85 157 2.0 3.0 0.00 0.00 0.00 44 1013.4
20260903012015 86 180 2.0 3.0 0.00 0.00 0.00 44 1013.5
20260903011018 87 180 2.0 3.0 0.00 0.00 0.00 42 1013.4
20260903010015 88 180 2.0 4.0 0.00 0.00 0.00 41 1013.3
20260903005015 90 157 2.0 4.0 0.00 0.00 0.00 40 1013.3
20260903003015 92 180 3.0 5.0 0.00 0.00 0.00 37 1013.4
20260903001016 93 180 5.0 9.0 0.00 0.00 0.00 36 1013.7
20260903000015 94 180 5.0 9.0 0.00 0.00 0.00 35 1013.9
20260902235016 95 202 6.0 10.0 0.00 0.00 0.00 34 1013.7
20260902234015 95 202 8.0 17.0 0.00 0.00 0.00 35 1013.8
20260902233015 96 202 5.0 7.0 0.00 0.00 0.00 32 1014.0
20260902232015 96 202 5.0 9.0 0.00 0.00 0.00 32 1013.9
20260902231017 96 202 6.0 10.0 0.00 0.00 0.00 32 1013.9
20260902230015 97 202 8.0 11.0 0.00 0.00 0.00 32 1014.0
20260902225015 97 135 3.0 4.0 0.00 0.00 0.00 31 1014.0
20260902223017 97 202 6.0 10.0 0.00 0.00 0.00 32 1014.1
20260902222015 97 202 5.0 11.0 0.00 0.00 0.00 31 1014.3
20260902221017 97 202 5.0 10.0 0.00 0.00 0.00 30 1014.2
20260902220015 97 180 5.0 13.0 0.00 0.00 0.00 30 1014.4
20260902215015 98 180 6.0 11.0 0.00 0.00 0.00 30 1014.5
20260902214015 98 202 7.0 15.0 0.00 0.00 0.00 32 1014.6
20260902213015 97 247 6.0 12.0 0.00 0.00 0.00 32 1014.8
20260902212015 96 270 3.0 6.0 0.00 0.00 0.00 32 1014.8
20260902211118 96 202 5.0 7.0 0.00 0.00 0.00 32 1014.9
20260902210015 95 270 1.0 3.0 0.00 0.00 0.00 32 1014.9
20260902205015 95 202 3.0 6.0 0.00 0.00 0.00 32 1015.2
20260902204015 95 202 3.0 6.0 0.00 0.00 0.00 33 1015.3
20260902203016 94 180 3.0 5.0 0.00 0.00 0.00 33 1015.4
20260902202015 97 90 7.0 11.0 0.00 0.00 0.00 31 1015.6
20260902201015 98 135 3.0 7.0 0.00 0.00 0.00 32 1016.0
20260902200015 98 67 10.0 15.0 0.00 0.00 0.00 31 1016.3
20260902194015 95 270 2.0 3.0 0.00 0.00 0.00 32 1016.5
20260902193015 96 247 5.0 9.0 0.00 0.00 0.00 32 1016.6
20260902192015 96 202 3.0 7.0 0.00 0.00 0.00 34 1016.6
20260902191015 96 202 6.0 11.0 0.00 0.00 0.00 34 1017.0
20260902190016 96 292 3.0 7.0 0.00 0.00 0.00 35 1017.3
20260902185015 92 225 4.0 6.0 0.00 0.00 0.00 37 1017.0
20260902183015 94 112 4.0 10.0 0.00 0.00 0.00 36 1017.4
20260902182017 95 202 6.0 11.0 0.00 0.00 0.00 35 1017.8
20260902181015 94 225 4.0 10.0 0.00 0.00 0.00 35 1017.8
20260902180015 95 315 4.0 7.0 0.00 0.00 0.00 35 1017.8
20260902175015 92 315 4.0 7.0 0.00 0.00 0.00 37 1018.1
20260902174116 94 202 6.0 10.0 0.00 0.00 0.00 36 1018.2
20260902173115 93 202 2.0 5.0 0.00 0.00 0.00 38 1018.5
20260902172116 92 180 3.0 6.0 0.00 0.00 0.00 38 1018.6
20260902171016 91 180 4.0 6.0 0.00 0.00 0.00 39 1018.4
20260902170016 93 202 6.0 12.0 0.00 0.00 0.00 38 1018.7
20260902165116 92 180 4.0 9.0 0.00 0.00 0.00 40 1018.9
20260902164016 92 202 6.0 11.0 0.00 0.00 0.00 41 1018.8
20260902163015 90 202 3.0 6.0 0.00 0.00 0.00 43 1018.7
20260902162015 90 202 5.0 13.0 0.00 0.00 0.00 44 1018.8
20260902161016 90 202 5.0 10.0 0.00 0.00 0.00 45 1018.9
20260902160015 89 202 7.0 13.0 0.00 0.00 0.00 46 1018.7
20260902155016 88 202 7.0 12.0 0.00 0.00 0.00 46 1018.8
20260902154015 87 225 7.0 11.0 0.00 0.00 0.00 47 1018.7
20260902153116 87 202 5.0 9.0 0.00 0.00 0.00 49 1018.7
20260902152015 85 202 8.0 13.0 0.00 0.00 0.00 50 1018.7
20260902151016 84 202 8.0 12.0 0.00 0.00 0.00 50 1018.6
20260902150020 83 202 9.0 14.0 0.00 0.00 0.00 53 1018.6
20260902145016 83 202 8.0 12.0 0.00 0.00 0.00 54 1018.6
20260902144016 82 202 6.0 13.0 0.00 0.00 0.00 57 1018.5
20260902143016 81 202 7.0 12.0 0.00 0.00 0.00 60 1018.5
20260902142016 80 202 6.0 10.0 0.00 0.00 0.00 64 1018.6
20260902141016 78 202 6.0 10.0 0.00 0.00 0.00 68 1018.5
20260902140016 77 202 7.0 11.0 0.00 0.00 0.00 70 1018.4